DW3478 Weather Reports


time (UTC)temp
C
wind
direction
speed
KPH
gust
KPH
rain 1hr
cm
rain 24hr
cm
rain mn
cm
humidity
%
barometer
mb
20180421190809 15 324 9.7 24.1 0.05 3.17 2.90 75 1012.5
20180421185809 15 286 11.3 29.0 0.05 3.17 2.90 77 1012.5
20180421184810 15 295 11.3 22.5 0.05 3.17 2.90 77 1012.3
20180421183810 15 316 4.8 27.4 0.05 3.17 2.90 79 1012.4
20180421182809 15 319 8.0 24.1 0.05 3.17 2.90 77 1012.3
20180421181810 16 313 9.7 22.5 0.00 3.15 2.87 73 1012.3
20180421180810 16 329 4.8 19.3 0.00 3.15 2.87 72 1012.3
20180421175810 16 325 8.0 24.1 0.00 3.15 2.87 69 1012.2
20180421173809 16 327 3.2 32.2 0.00 3.17 2.87 70 1012.0
20180421171809 16 275 3.2 27.4 0.00 3.17 2.87 74 1011.8
20180421170810 16 322 8.0 27.4 0.00 3.17 2.87 78 1011.6
20180421165810 16 303 16.1 24.1 0.03 3.17 2.87 77 1011.6
20180421163810 16 263 3.2 22.5 0.03 3.17 2.87 75 1011.9
20180421162810 16 342 11.3 19.3 0.03 3.17 2.87 75 1011.8
20180421160810 16 304 8.0 20.9 0.03 3.17 2.87 79 1011.4
20180421155810 16 333 4.8 20.9 0.00 3.15 2.84 78 1011.7
20180421154810 16 246 9.7 19.3 0.00 3.28 2.84 76 1011.7
20180421153810 16 343 4.8 29.0 0.00 3.28 2.84 77 1011.5
20180421152810 16 327 8.0 22.5 0.03 3.28 2.84 76 1011.5
20180421151810 16 343 9.7 29.0 0.03 3.28 2.84 78 1011.4
20180421150810 16 350 8.0 24.1 0.03 3.28 2.84 77 1011.5
20180421145809 17 292 4.8 19.3 0.03 3.28 2.84 76 1011.6
20180421143810 17 292 8.0 16.1 0.03 3.28 2.84 71 1011.7
20180421141810 17 350 14.5 33.8 0.00 3.25 2.82 67 1011.4
20180421140809 17 262 14.5 33.8 0.00 3.25 2.82 69 1011.7
20180421135810 18 22 11.3 29.0 0.00 3.25 2.82 65 1011.8
20180421133810 18 22 14.5 41.8 0.00 3.25 2.82 66 1012.0
20180421132810 18 332 11.3 33.8 0.00 3.25 2.82 68 1011.7
20180421131810 18 326 3.2 24.1 0.00 3.25 2.82 69 1011.6
20180421130810 17 273 9.7 19.3 0.00 3.25 2.82 71 1011.8
20180421125810 17 314 1.6 22.5 0.00 3.30 2.82 77 1011.6
20180421122809 16 319 16.1 32.2 0.00 3.30 2.82 76 1011.8
20180421121810 16 323 14.5 24.1 0.00 3.51 2.82 77 1011.8
20180421115810 16 315 9.7 24.1 0.00 3.53 2.82 76 1011.9
20180421114809 16 5 8.0 19.3 0.00 3.53 2.82 76 1011.8
20180421113809 16 19 4.8 19.3 0.05 3.53 2.82 76 1011.8
20180421112810 16 348 8.0 19.3 0.05 3.53 2.82 79 1011.9
20180421105809 15 344 4.8 29.0 0.10 3.53 2.82 82 1011.5
20180421104810 15 331 11.3 32.2 0.10 3.53 2.82 82 1011.1
20180421102810 15 318 17.7 38.6 0.15 3.51 2.77 83 1010.9
20180421095811 14 320 20.9 46.7 0.20 3.48 2.72 85 1010.3
20180421094810 14 314 14.5 56.3 0.20 3.48 2.72 84 1010.3
20180421093810 14 329 8.0 29.0 0.15 3.43 2.67 84 1010.3
20180421092810 14 331 16.1 40.2 0.13 3.43 2.64 82 1010.2
20180421090810 14 323 19.3 61.2 0.08 3.33 2.54 84 1009.7
20180421085809 14 322 17.7 41.8 0.08 3.33 2.51 82 1009.9
20180421084809 14 321 8.0 35.4 0.08 3.33 2.51 84 1010.0
20180421083810 14 341 14.5 48.3 0.08 3.33 2.51 82 1009.9
20180421075811 14 347 11.3 41.8 0.10 3.25 2.44 81 1009.7
20180421074809 14 331 16.1 46.7 0.13 3.25 2.44 83 1009.6
20180421072810 14 329 12.9 45.1 0.18 3.23 2.41 84 1009.6
20180421065810 13 310 16.1 33.8 0.15 3.15 2.34 87 1009.6
20180421064809 13 324 14.5 40.2 0.20 3.12 2.31 87 1009.6
20180421063810 13 335 25.7 40.2 0.23 3.12 2.31 85 1009.5
20180421062810 13 310 20.9 40.2 0.23 3.05 2.24 86 1009.5
20180421060810 13 309 20.9 46.7 0.25 3.05 2.21 86 1009.2
20180421055811 13 343 24.1 45.1 0.23 3.02 2.18 86 1009.2
20180421053809 13 338 20.9 37.0 0.18 2.95 2.11 86 1009.2
20180421052810 13 340 14.5 35.4 0.08 2.84 2.01 85 1009.4
20180421050810 13 306 16.1 37.0 0.13 2.79 1.96 84 1009.2
20180421044810 13 355 11.3 29.0 0.18 2.77 1.93 84 1009.7
20180421043809 13 351 14.5 38.6 0.33 2.77 1.93 84 1009.7
20180421042810 13 343 17.7 41.8 0.33 2.77 1.93 85 1009.6
20180421040810 13 322 19.3 38.6 0.25 2.69 1.83 87 1009.9
20180421034809 13 319 16.1 37.0 0.23 2.59 1.75 86 1009.8
20180421033810 13 321 16.1 45.1 0.10 2.44 1.60 86 1010.1
20180421032810 13 323 16.1 41.8 0.13 2.44 1.60 86 1010.2
20180421031809 13 329 14.5 41.8 0.23 2.44 1.60 87 1010.1
20180421030809 13 343 17.7 45.1 0.23 2.41 1.57 86 1010.2
20180421022809 13 328 17.7 38.6 0.41 2.31 1.47 87 1010.6
20180421015810 13 320 12.9 35.4 0.48 2.11 1.27 89 1010.8
20180421014809 13 310 14.5 33.8 0.48 2.01 1.17 89 1011.1
20180421013810 13 328 12.9 35.4 0.51 1.93 1.09 89 1011.1
20180421012810 13 311 16.1 45.1 0.56 1.93 1.09 89 1011.4
20180421005809 12 335 16.1 40.2 0.38 1.65 0.79 89 1011.9
20180421002809 12 315 16.1 41.8 0.33 1.40 0.51 88 1012.2
20180421001809 12 324 16.1 40.2 0.33 1.37 0.48 88 1012.3
20180421000810 12 313 11.3 33.8 0.28 1.37 0.43 89 1012.6
20180420235809 12 312 11.3 32.2 0.41 1.37 0.41 89 1012.5
20180420234809 12 316 9.7 35.4 0.25 1.22 0.25 87 1012.9
20180420230821 12 328 14.5 32.2 0.23 1.09 0.15 85 1013.3
20180420225809 12 346 19.3 41.8 0.08 0.97 0.97 82 1013.5
20180420224810 12 320 11.3 32.2 0.08 0.97 0.97 84 1013.5
20180420223810 12 324 9.7 35.4 0.05 0.91 0.91 82 1013.7
20180420220809 12 309 12.9 32.2 0.05 0.89 0.89 83 1014.1
20180420214809 12 344 4.8 20.9 0.13 0.89 0.89 83 1014.4
20180420213809 12 311 4.8 32.2 0.13 0.89 0.89 82 1014.3
20180420212809 12 314 6.4 25.7 0.13 0.89 0.89 81 1014.3
20180420210809 12 301 11.3 24.1 0.13 0.86 0.81 82 1014.0
20180420205810 12 315 8.0 24.1 0.05 0.91 0.76 78 1013.9
20180420204809 12 316 11.3 35.4 0.05 0.91 0.76 78 1013.9
20180420202809 12 331 16.1 38.6 0.08 0.91 0.76 81 1013.9
20180420195810 12 313 12.9 29.0 0.03 0.86 0.71 79 1013.8
20180420194810 12 300 14.5 32.2 0.03 0.86 0.71 78 1013.9
20180420193809 12 317 8.0 19.3 0.00 0.86 0.69 76 1014.2
20180420192810 13 311 8.0 19.3 0.00 0.89 0.69 76 1014.2
20180420191809 12 315 11.3 32.2 0.00 0.91 0.69 77 1014.2